This demonstration page uses our WeatherBlox Daily Observations layout. Learn more.

Left ArrowRight Arrow

38.80484, -77.04692

Hourly Observations for September 15, 2020

Temp ( °F °C ) Dew Point ( °F °C ) Humidity (%) Winds ( mph kmh ) Pressure ( in mb ) Visibility ( mi km ) Precip ( " mm )
12:52 am 00:52 Cloudy 65 18.3 51 10.6 61 61 NNE 14 22 30.26 1025 10 16 N/A
1:52 am 01:52 Cloudy 63 17.2 48 8.9 58 58 NNE 15 24 30.27 1025 10 16 N/A
2:52 am 02:52 Cloudy 61 16.1 47 8.3 60 60 NNE 14 22 30.29 1026 10 16 N/A
3:52 am 03:52 Cloudy 59 15 45 7.2 60 60 NNE 13 20 30.30 1026 10 16 N/A
4:52 am 04:52 Cloudy 58 14.4 45 7.2 62 62 N 14 22 30.31 1027 10 16 N/A
5:52 am 05:52 Cloudy 56 13.3 44 6.7 65 65 N 13 20 30.33 1027 10 16 N/A
6:52 am 06:52 Cloudy 56 13.3 44 6.7 65 65 N 15 24 30.34 1027 10 16 N/A
7:52 am 07:52 Cloudy 56 13.3 44 6.7 65 65 N 14 22 30.35 1028 10 16 N/A
8:52 am 08:52 Cloudy 57 13.9 45 7.2 64 64 NNE 9 15 30.36 1028 10 16 N/A
9:52 am 09:52 Cloudy N/A N/A N/A NNE 13 20 N/A 10 16 N/A
10:52 am 10:52 Mostly Cloudy 62 16.7 47 8.3 58 58 NNE 8 13 30.37 1028 10 16 N/A
11:52 am 11:52 Mostly Cloudy 65 18.3 48 8.9 54 54 NNE 8 13 30.35 1028 10 16 N/A
12:52 pm 12:52 Mostly Cloudy 67 19.4 47 8.3 49 49 VRB 5 7 30.34 1027 10 16 N/A
1:52 pm 13:52 Mostly Cloudy 69 20.6 46 7.8 44 44 N N/A 30.32 1027 10 16 N/A
2:52 pm 14:52 Mostly Cloudy 69 20.6 45 7.2 42 42 N N/A 30.29 1026 10 16 N/A
3:52 pm 15:52 Mostly Cloudy 70 21.1 46 7.8 42 42 ENE 6 9 30.28 1025 10 16 N/A
4:52 pm 16:52 Mostly Cloudy 70 21.1 44 6.7 39 39 N N/A 30.28 1025 10 16 N/A
5:52 pm 17:52 Mostly Cloudy 69 20.6 48 8.9 47 47 E 3 6 30.28 1025 10 16 N/A
6:52 pm 18:52 Mostly Cloudy 66 18.9 47 8.3 50 50 E 5 7 30.28 1025 10 16 N/A
7:52 pm 19:52 Mostly Cloudy 64 17.8 52 11.1 65 65 ESE 8 13 30.29 1026 10 16 N/A
8:52 pm 20:52 Mostly Cloudy 63 17.2 51 10.6 65 65 ESE 8 13 30.29 1026 10 16 N/A
9:52 pm 21:52 Mostly Cloudy 62 16.7 50 10 65 65 N N/A 30.31 1026 10 16 N/A
10:52 pm 22:52 Mostly Cloudy 61 16.1 52 11.1 72 72 NE 3 6 30.30 1026 10 16 N/A
11:52 pm 23:52 Mostly Cloudy 61 16.1 50 10 67 67 N N/A 30.29 1026 10 16 N/A

Powered by AerisWeather